Location: *
(46.4000°N, 12.6667°E)
Time: 18:15:25
(UTC+00:00)

SeaSat 1 - Pass Details

Date: 09 April 2020
Orbit: 745 x 746 km, 108.0° (Epoch: 01 June)

Event Time Altitude Azimuth Distance (km) Brightness Sun altitude
Rises 18:12:06 0° 28° (NNE) 3,199 5.6 -4.6°
Reaches altitude 10° 18:14:23 10° 30° (NNE) 2,272 4.8 -5.0°
Maximum altitude 18:19:20 82° 118° (ESE) 759 2.4 -5.8°
Drops below altitude 10° 18:24:15 10° 206° (SSW) 2,257 5.0 -6.6°
Sets 18:26:30 0° 207° (SSW) 3,177 5.8 -7.0°
